KINEIS-5C

导读

KINEIS-5C是法国Kinéis公司物联网卫星星座组网卫星,原计划于2024年11月25日发射。该卫星属于Kinéis公司第四批发射卫星,火箭实验室通过电子号火箭分五批次完成整个星座部署。卫星最终被送入高度646公里倾角97度预定轨道,整个星座用于提供物联网通信与船舶自动识别系统AIS追踪服务,2025年年中已投入运营。

Basic Information
目录编号:
62081
目录名称:
KINEIS-5C
国际标识:
2024-219A
轨道中心:
EARTH
卫星名称:
KINEIS-5C
卫星全名:
KINEIS-5C
卫星状态:
在轨 (已飞行566 天)
发射日期:
2024-11-25 UTC
国别 :
法国 (FR)
星等 :
--
Orbit Information
数据来源 国际轨道数据
星历时间: 2026-06-15T00:20:46+0800
7小时前
查看轨道信息
半长轴: 7031.943km
偏心率: 0.0002727
轨道倾角: 97.904°
近地点辐角 300.363°
升交点赤经 324.603°
平近点角 59.731°
近地点: 651.888km
远地点: 655.724km
周期: 97.808分钟
每日圈数: 14.72278
Detailed Information
使用方式:
暂无
2D Orbit Map
3D Orbit Map
Orbit Altitude Analysis Chart
Orbit Inclination Analysis Chart
Orbit Comprehensive Analysis Chart
View Comprehensive Chart